GFSWCAN_con_3kmhel_093.txt.gz
Helicity
237 52 -2 17 32 30 39 31 30 21 36 56 62 60 85 92 81 57 121 170 94 62 146 92 61 40 28 5 16 -20 2 0 29 64 91 77 48 15 26 21 15 25 26 31 15 2 28 -18 -5 75 114 101 46 51
26 27 75 43 38 77 62 54 46 20 32 46 51 53 67 76 74 69 119 171 160 66 91 90 72 48 5 -17 2 -16 -16 -19 -1 41 29 15 11 -8 4 12 36 9 14 -20 22 16 3 -27 4 46 42 37 22 17
12 52 70 48 90 57 33 52 46 31 35 49 42 55 72 88 95 74 91 137 113 117 128 84 68 32 12 2 -9 23 -22 -20 -15 1 10 5 12 23 25 7 27 29 50 18 22 26 1 30 -7 3 20 27 34 15
50 21 26 44 55 38 49 59 65 40 34 57 52 63 77 88 95 73 106 138 101 105 81 87 82 59 17 18 28 19 21 23 20 -2 20 21 24 31 36 13 15 29 34 36 10 1 -8 -11 11 -3 11 23 8 6
28 29 47 66 69 58 56 35 52 42 36 43 58 73 86 80 75 55 71 147 89 40 59 62 76 64 23 36 44 39 37 24 24 35 22 23 16 46 24 16 29 9 8 19 15 16 1 6 18 14 1 1 -5 -1
35 33 48 64 65 54 35 33 30 39 47 68 75 86 93 90 61 68 95 103 130 84 95 78 60 45 26 32 38 35 37 39 37 34 30 9 10 43 52 36 12 10 7 7 1 33 30 10 18 19 12 10 22 19
49 73 70 96 73 40 30 23 29 56 60 65 67 69 85 72 62 56 48 81 114 75 88 95 79 41 11 35 31 37 41 54 62 77 69 32 25 32 37 50 25 24 4 11 12 9 -3 10 7 7 12 10 16 15
47 63 78 77 49 36 32 25 36 52 58 69 59 78 87 98 82 86 88 94 72 80 85 74 61 60 31 37 46 55 73 69 54 61 47 43 46 46 40 37 30 23 9 16 12 14 38 29 41 31 21 7 13 13
96 73 59 54 57 53 39 29 36 52 54 56 66 94 112 113 92 65 37 55 59 64 69 65 76 61 37 44 65 65 64 62 39 39 46 48 54 42 33 13 26 27 18 19 41 50 58 32 55 52 36 22 26 37
50 69 73 44 45 42 45 33 33 37 61 71 102 122 127 93 28 51 67 64 60 37 32 50 44 51 34 43 42 45 37 18 23 30 54 34 25 26 51 66 65 56 53 36 76 60 54 60 57 59 56 52 49 38
34 42 44 45 40 34 37 33 48 79 100 101 113 107 104 31 77 63 60 51 40 40 33 32 21 36 37 36 8 15 11 9 8 17 3 17 19 36 41 90 68 58 66 73 84 78 71 53 42 48 50 52 51 47
56 47 42 57 34 1 16 48 68 87 72 56 61 83 88 93 70 46 40 32 25 35 22 30 22 8 -2 18 12 5 6 4 17 7 17 35 45 40 67 53 50 39 38 50 44 58 65 60 47 55 56 56 49 53
64 50 46 49 34 19 29 47 54 36 45 98 119 112 75 54 44 44 39 38 34 12 18 13 -6 -6 33 16 10 0 13 49 54 17 24 25 12 36 57 51 35 25 22 30 47 62 72 73 67 62 72 60 59 55
38 42 46 53 56 42 49 46 34 65 90 119 122 94 69 52 32 30 31 23 15 35 12 12 0 34 30 7 6 21 38 27 33 34 32 16 17 35 30 15 12 20 29 38 46 53 62 74 79 67 51 30 48 51
38 33 41 59 52 54 63 70 69 81 105 141 112 108 62 35 33 22 11 15 20 15 11 34 42 21 18 4 11 22 22 30 14 14 12 10 11 18 15 28 26 36 40 51 60 64 50 42 37 34 21 38 63 64
41 76 113 46 57 81 90 101 108 90 109 114 95 76 57 45 47 19 7 9 22 11 47 45 33 23 17 14 18 37 26 16 35 60 22 24 14 14 17 32 32 42 50 50 40 24 14 28 35 38 41 49 59 71
48 185 71 52 78 113 134 104 112 111 103 109 78 61 55 46 31 6 15 6 42 41 45 48 40 37 24 27 39 11 17 22 12 11 8 -7 50 6 56 64 54 49 49 33 11 11 19 29 44 47 56 48 61 72
134 101 90 90 148 154 153 113 103 110 91 40 59 65 76 60 45 41 41 43 39 43 44 57 62 32 19 20 22 10 10 15 1 -19 -7 28 71 82 83 76 54 47 23 9 13 22 35 41 38 48 72 87 88 80
125 98 80 98 125 133 107 94 38 91 77 86 61 33 36 53 37 30 40 48 38 36 57 43 53 39 16 4 -9 -2 9 1 -9 14 30 51 77 83 72 63 38 19 15 20 25 26 31 39 59 69 82 113 119 119
86 109 113 108 99 131 102 68 84 58 56 58 59 42 8 7 25 20 31 47 46 42 54 30 12 29 4 0 2 4 36 65 109 103 73 37 56 77 58 37 14 14 25 30 37 51 58 53 59 85 115 136 144 125
130 103 123 86 64 79 97 83 82 73 35 26 23 23 14 5 14 14 31 28 39 42 36 28 11 -5 20 30 24 56 93 108 18 10 11 19 48 78 56 41 44 42 48 52 59 54 63 79 101 123 139 136 129 123
146 99 111 90 44 62 55 110 73 31 41 24 11 5 3 5 14 9 9 30 29 26 22 15 20 39 36 11 21 44 86 98 71 62 95 148 124 89 43 34 54 56 63 65 70 78 82 108 132 141 157 156 148 149
118 100 71 62 75 101 82 95 58 26 31 18 12 -1 3 9 8 8 29 26 36 49 55 49 45 68 51 72 93 94 86 85 75 72 90 110 117 90 65 53 55 62 60 52 69 103 131 144 150 166 167 172 177 187
108 45 -9 61 66 66 78 63 47 29 35 17 -4 3 11 10 12 18 42 46 61 60 68 64 99 129 120 111 90 60 72 96 99 100 99 122 117 91 63 55 47 39 62 91 113 142 145 154 164 177 176 184 195 203
18 40 77 67 36 48 38 33 38 39 25 39 27 14 12 14 3 25 49 54 54 47 55 77 94 105 115 104 86 101 100 109 99 89 82 125 158 155 129 115 104 96 103 156 148 149 147 161 177 194 192 199 200 204
72 68 57 50 43 45 42 31 18 20 43 35 7 19 20 10 24 44 42 26 24 11 11 26 64 103 97 100 99 92 79 109 140 150 112 100 129 166 151 140 127 102 85 98 137 140 149 168 199 208 212 194 194 194
38 47 35 33 36 41 42 45 34 38 36 26 21 31 32 17 33 24 17 16 20 11 3 52 88 92 102 119 137 154 165 161 154 152 159 172 178 154 135 124 96 74 94 109 117 134 161 179 196 203 210 193 185 172
23 23 47 53 63 82 52 43 27 27 30 30 47 34 5 5 15 -12 -21 -9 -6 5 40 67 55 73 100 118 144 195 220 223 240 233 248 261 203 160 146 145 153 155 138 128 130 148 164 172 177 187 194 196 175 158
-9 35 84 93 88 63 46 46 26 24 41 33 4 11 11 5 -3 -8 2 2 11 41 74 85 93 125 161 191 196 186 203 198 204 170 171 170 175 171 163 174 171 155 141 152 157 156 161 156 160 174 179 186 173 189
66 104 98 101 99 65 73 84 66 70 79 79 75 60 40 25 8 12 21 32 25 10 41 76 108 133 140 173 176 178 186 175 163 161 163 141 116 132 123 140 144 135 138 142 149 160 173 172 169 172 197 196 182 174
149 191 159 122 85 106 115 130 119 92 99 83 86 37 25 24 29 30 45 50 79 116 135 129 141 141 179 164 159 171 156 146 136 138 128 141 170 137 116 112 113 116 127 143 152 159 174 188 179 187 181 173 151 133
186 173 158 142 160 180 181 139 104 95 102 89 78 95 89 76 37 31 94 155 170 145 120 153 162 139 162 210 214 199 162 179 178 158 160 156 135 116 119 124 132 144 153 157 155 155 169 167 157 152 144 134 119 118
211 233 238 188 157 145 152 146 116 98 100 86 64 40 46 43 45 98 145 137 107 113 120 153 196 213 215 224 214 202 198 196 187 185 187 172 145 128 125 125 131 137 147 144 139 144 152 158 141 129 124 114 109 102

GFSWCAN_con_3kmhel_096.txt.gz
Helicity
-23 107 44 43 43 8 12 26 29 30 46 51 67 80 93 83 60 69 103 120 77 55 119 77 69 70 64 36 37 9 26 18 29 52 69 73 100 55 53 23 23 13 29 29 36 77 45 -16 -42 5 40 31 31 41
-14 105 47 34 39 13 6 46 36 22 48 60 61 56 74 73 76 76 116 166 172 79 103 105 101 79 25 -13 8 -9 -10 -3 4 44 46 33 47 13 26 35 14 4 -2 33 54 54 -16 -21 7 22 66 41 42 26
9 69 70 37 47 50 49 46 35 24 38 51 56 56 66 64 75 63 126 181 153 115 147 106 100 81 29 27 -9 17 -13 -22 -14 -7 10 20 36 11 -3 17 29 26 20 5 2 -0 -4 15 5 3 22 29 22 22
66 22 26 69 71 57 27 65 53 36 49 57 50 64 71 63 75 94 152 186 139 107 72 102 102 91 52 42 42 26 17 19 8 -10 11 20 25 8 11 15 44 36 34 23 -6 23 9 4 19 22 28 20 27 34
28 49 46 66 49 31 46 59 40 27 43 53 48 38 52 49 72 113 125 176 124 42 82 96 101 114 69 70 73 59 50 34 23 26 27 19 11 18 25 32 48 31 22 28 11 7 5 3 12 8 14 13 14 17
76 41 35 51 74 64 58 53 85 32 42 61 47 48 45 57 79 106 111 94 127 100 135 109 85 80 66 64 64 67 52 43 35 32 20 17 29 40 26 18 14 6 11 -2 18 37 40 26 15 12 19 20 11 17
25 32 51 66 66 45 43 49 62 68 59 72 49 64 60 57 50 61 61 112 138 85 92 98 83 78 51 43 46 46 40 40 42 44 45 46 48 54 53 19 6 19 15 9 15 15 26 6 13 11 8 9 10 16
25 37 53 74 47 41 58 44 48 49 64 64 64 88 86 62 43 71 123 139 89 86 93 79 71 88 58 53 53 38 45 55 68 75 75 75 63 69 59 49 36 30 25 9 11 31 55 62 55 33 19 9 11 11
41 77 71 56 51 53 47 49 54 57 63 66 89 119 115 110 89 80 107 126 105 76 72 67 70 59 57 56 46 49 52 59 55 71 71 65 47 42 46 38 22 9 7 20 36 51 40 42 36 28 19 15 20 14
74 72 74 75 73 58 60 57 49 65 63 87 121 137 113 126 96 103 109 102 101 93 73 64 71 73 46 35 41 41 34 40 32 17 53 35 25 44 50 37 38 24 43 77 87 56 58 67 44 33 32 36 35 30
137 83 63 62 63 56 47 55 59 78 109 125 123 116 134 115 104 93 87 90 83 80 72 73 66 69 24 46 15 14 34 44 20 2 22 22 24 9 54 82 60 69 74 62 38 52 46 42 44 47 50 47 42 42
51 57 38 46 55 62 61 58 75 84 78 62 65 102 124 98 80 68 75 68 65 70 54 63 34 47 45 37 10 5 27 -2 14 2 12 53 29 18 49 68 68 68 61 79 65 89 85 77 64 67 55 45 41 53
70 58 53 48 46 53 52 74 49 24 63 100 127 108 91 72 62 63 60 70 58 42 23 22 51 26 -0 -3 4 10 -10 20 41 14 38 27 15 24 54 47 51 46 49 44 58 68 75 77 64 45 49 40 45 47
56 55 50 34 23 37 67 38 38 73 82 127 117 98 86 65 56 54 67 68 48 31 17 16 17 -8 -6 19 15 6 35 24 16 41 43 23 -3 33 36 22 21 36 38 39 42 45 46 55 69 68 52 25 38 53
70 64 47 34 35 53 53 55 62 76 110 135 110 97 74 60 75 80 58 39 43 48 28 7 -5 19 39 19 12 26 25 27 17 26 7 5 20 17 20 37 28 25 30 36 35 51 52 49 45 45 28 31 52 56
72 96 124 43 70 65 63 74 87 92 122 119 96 78 67 70 64 53 53 45 28 12 10 -1 -0 38 32 11 30 16 14 16 22 41 24 11 14 20 27 34 28 31 37 52 56 46 31 29 30 30 33 35 37 42
135 152 40 73 103 117 103 85 111 113 119 110 91 72 66 63 52 30 1 12 11 8 -14 14 37 42 33 27 31 14 18 25 23 17 -1 -14 -20 -5 36 54 49 56 58 56 39 26 26 27 31 29 36 30 40 56
113 59 82 111 121 138 119 85 102 107 98 92 80 82 68 55 57 41 21 21 23 27 50 55 50 37 29 28 30 20 16 14 17 4 -4 7 37 63 69 81 62 61 57 29 31 36 40 33 36 32 35 44 53 57
55 106 86 109 113 121 80 71 101 83 55 58 53 57 61 63 37 35 32 39 45 52 47 50 50 41 38 20 4 2 4 -4 -7 11 24 20 65 89 96 99 73 62 39 37 38 36 33 29 41 41 45 66 80 90
67 91 120 127 114 91 74 64 74 79 79 66 48 44 47 34 30 24 34 55 58 56 59 46 37 58 26 17 -1 1 -0 32 67 69 57 59 70 99 90 79 52 45 44 45 60 67 55 45 47 59 75 86 105 102
196 168 144 117 103 87 64 50 67 83 66 61 33 13 6 15 14 25 26 29 49 53 58 38 17 16 13 20 17 31 70 80 42 25 55 72 66 88 92 85 82 66 63 68 73 64 56 61 70 95 111 105 101 112
146 111 122 97 73 64 64 76 88 67 67 47 34 22 11 11 13 16 14 34 48 53 36 41 51 43 17 13 24 38 56 84 78 75 107 142 113 101 98 87 85 66 52 46 55 58 61 70 100 113 124 119 127 149
100 105 78 59 56 88 69 67 70 36 43 17 28 16 10 9 6 30 23 33 67 62 56 67 51 46 51 61 80 82 81 100 89 70 71 97 121 137 136 113 97 83 64 51 59 84 100 110 127 142 138 138 141 153
107 82 56 55 51 80 65 68 73 45 37 35 20 3 -5 -11 18 21 35 62 70 59 59 66 70 98 101 99 76 70 91 105 106 100 92 119 132 121 122 114 102 88 90 102 111 128 133 136 139 142 139 141 152 169
64 63 58 75 49 38 46 38 26 35 42 40 28 20 -7 17 5 9 39 56 44 42 46 66 76 85 65 71 90 96 110 114 101 72 77 120 159 189 186 168 147 118 108 142 131 142 141 141 142 147 139 154 173 180
44 68 48 48 47 45 46 18 13 22 26 19 4 19 31 16 12 38 47 45 37 29 28 30 48 70 80 75 104 112 115 130 137 125 96 109 131 172 162 157 155 129 104 109 144 138 131 125 141 151 163 175 187 188
48 65 34 34 40 41 57 57 49 31 7 -1 30 33 22 17 31 26 28 21 34 36 31 29 53 56 66 99 134 155 165 151 131 132 147 166 170 164 153 136 121 92 90 105 108 112 120 126 137 151 177 179 172 165
4 19 51 44 50 63 48 48 25 -3 4 21 48 23 7 9 33 11 -12 -7 2 13 24 45 40 50 73 96 121 158 179 178 204 218 240 242 214 194 169 159 163 154 127 109 114 123 127 133 145 153 175 180 170 158
-2 21 40 47 82 53 34 23 11 15 42 47 28 21 19 8 8 4 1 -2 3 14 25 59 75 91 124 142 142 131 150 145 157 140 158 171 173 173 179 201 191 164 152 165 166 150 147 143 146 161 176 184 169 170
36 79 66 30 50 58 63 58 46 56 75 97 96 69 47 30 11 8 12 21 12 -2 7 23 54 72 75 113 126 136 137 119 113 151 159 142 137 165 161 177 168 149 152 171 182 192 211 204 195 175 178 171 155 156
98 131 112 86 42 73 110 128 123 112 113 100 101 67 48 39 30 29 36 41 55 78 90 74 85 85 126 136 143 157 131 133 152 160 158 185 198 168 153 143 134 136 144 147 135 141 152 160 159 166 169 165 149 135
128 112 112 107 117 122 140 148 149 147 138 120 89 98 97 78 39 23 70 108 147 123 91 110 109 89 117 164 188 190 169 211 186 169 174 185 189 166 161 149 141 144 149 145 145 141 150 157 151 151 141 133 113 106
153 171 190 157 144 133 149 154 121 96 116 109 85 70 68 44 33 64 107 111 81 83 103 128 161 192 210 228 237 242 243 232 215 201 194 196 183 160 149 139 135 137 146 143 138 140 151 155 138 123 115 102 94 92

GFSWCAN_con_3kmhel_102.txt.gz
Helicity
32 -0 22 24 -27 -5 34 67 67 57 59 28 46 110 76 56 -6 30 48 56 65 33 95 87 86 55 52 32 28 36 32 39 48 50 42 43 40 46 47 46 41 27 2 10 31 42 68 49 10 20 28 -1 -14 -2
34 16 2 135 17 38 35 37 50 72 32 25 39 48 41 39 17 29 51 57 68 100 104 124 104 101 74 50 26 50 43 53 48 43 36 30 40 30 30 38 24 14 22 54 40 38 22 11 6 7 4 13 5 1
35 66 36 80 28 29 44 50 43 42 87 66 60 63 61 25 14 51 47 83 108 153 128 78 102 122 85 67 64 32 25 23 31 53 48 46 46 23 27 23 21 14 8 12 -0 19 9 3 14 14 6 5 -6 -13
68 76 95 -2 16 27 33 27 14 33 55 73 96 50 37 28 53 62 90 114 120 100 92 98 107 104 133 59 42 40 25 21 24 33 39 42 46 30 28 25 13 23 10 20 37 41 23 19 14 2 8 3 -0 2
54 63 4 -5 18 33 33 24 44 50 61 28 33 38 51 64 67 106 118 124 117 68 92 98 92 146 114 76 72 54 29 14 8 13 26 37 49 45 39 19 23 10 17 19 29 35 35 26 3 -7 -5 -6 -13 -5
126 24 -6 12 22 24 16 18 30 28 23 50 50 61 113 111 107 126 126 128 135 111 171 110 114 117 100 74 66 62 47 37 31 33 35 29 42 49 52 45 45 27 17 5 29 48 53 40 24 13 11 2 -8 -0
178 43 46 48 47 57 47 35 28 41 53 55 52 57 46 54 89 97 75 133 169 142 94 93 69 81 81 61 48 47 53 45 48 41 48 48 46 42 53 57 40 35 17 8 43 66 52 13 15 8 13 4 2 -7
18 68 53 35 6 22 55 42 62 67 45 36 40 66 94 93 59 102 197 181 135 79 103 53 50 54 65 45 45 47 40 36 50 53 50 59 52 47 46 55 64 40 17 -8 10 34 40 56 23 10 -9 -20 -21 -15
68 66 48 32 33 37 55 37 61 49 48 47 52 87 113 122 107 115 209 166 103 88 56 54 36 36 56 50 46 36 28 41 27 37 61 61 85 82 53 60 53 26 2 -13 4 37 52 34 11 -7 -12 -13 1 6
67 55 44 51 51 68 40 40 67 60 62 63 124 102 114 98 127 168 127 92 91 91 82 59 57 46 29 37 39 23 12 21 37 63 56 60 69 75 69 47 34 30 19 25 20 16 31 33 13 5 12 13 17 25
61 58 36 46 53 42 40 51 62 88 111 113 102 111 127 104 109 103 97 91 84 62 66 70 54 48 27 31 31 7 17 25 31 46 26 37 29 28 50 43 43 41 14 15 19 11 18 28 23 27 32 45 42 41
55 31 50 37 50 27 38 47 69 97 102 100 93 109 107 117 112 82 102 91 71 57 60 68 66 54 41 14 17 -0 12 18 2 28 7 -2 20 23 44 53 62 41 16 26 36 46 55 54 43 44 50 57 57 59
41 50 43 37 20 25 44 49 53 44 103 152 189 163 132 94 92 74 61 64 48 52 53 63 74 54 27 15 5 2 4 -4 14 -0 14 22 9 10 33 60 70 53 43 53 76 83 76 72 70 56 60 59 63 50
54 44 38 46 46 53 45 65 79 127 115 144 163 135 122 79 60 56 64 66 57 49 52 56 58 30 18 -12 -20 -10 -14 5 -0 13 24 22 34 19 17 25 24 31 39 56 68 73 78 80 88 75 59 46 47 41
51 38 51 26 29 39 59 65 104 135 130 122 129 101 81 61 83 85 96 85 75 50 43 45 39 -0 -21 -30 -15 -12 -4 10 25 17 12 14 51 45 21 23 23 26 39 54 51 72 73 68 79 84 63 61 53 42
61 67 28 24 31 42 57 84 133 125 138 117 88 80 90 55 75 84 98 102 73 47 42 39 10 -39 -44 -19 -14 20 25 24 9 16 14 27 38 12 8 15 15 23 19 18 20 39 49 50 58 64 68 53 31 30
74 22 -19 20 36 54 84 122 154 131 104 99 86 88 85 88 72 70 70 62 67 47 33 17 -29 -50 -24 -19 33 10 30 25 30 28 15 12 26 2 6 19 17 11 36 40 66 67 73 65 64 62 61 42 48 51
47 -5 -18 17 54 87 136 135 127 109 109 113 78 80 71 67 47 50 47 58 35 25 6 -16 -39 -33 -24 35 31 24 20 15 19 12 10 12 22 27 16 28 52 59 58 72 70 34 41 52 59 61 71 67 64 49
44 18 24 41 53 81 94 101 114 114 97 81 65 74 70 60 40 27 13 13 26 18 1 -27 -45 -35 34 38 38 30 14 4 4 12 18 27 28 42 53 56 72 76 72 75 73 56 49 51 58 65 74 62 67 65
79 83 51 40 49 76 87 86 97 102 107 84 66 81 80 62 38 29 26 15 14 17 -9 -32 -40 47 47 34 27 27 18 16 21 31 27 28 37 59 60 74 80 96 93 89 91 77 75 81 73 75 77 82 84 98
112 109 65 50 56 54 54 72 86 95 68 80 67 67 67 37 37 30 25 24 13 9 -3 -3 50 41 49 40 32 22 16 20 -10 -12 -0 46 65 67 83 78 100 88 88 84 73 71 67 70 78 87 95 108 112 111
97 80 55 52 39 36 38 57 71 77 81 58 42 45 43 43 33 26 23 28 22 30 29 39 46 32 39 38 29 20 26 40 54 59 79 115 95 91 87 89 90 84 88 86 87 92 90 94 97 108 119 124 116 112
89 84 52 34 29 45 50 61 73 97 96 61 47 37 25 17 12 7 16 25 38 46 47 56 47 48 43 50 38 45 50 52 61 65 60 56 70 79 90 82 77 97 119 120 114 107 108 114 119 125 129 116 111 112
88 64 44 38 41 35 42 53 51 65 88 83 58 40 23 9 9 10 21 37 52 34 35 43 40 47 59 50 39 50 63 77 100 95 70 71 77 89 87 84 89 96 109 145 140 131 129 127 128 121 120 112 106 106
51 46 30 32 37 40 46 42 30 17 37 42 51 35 27 11 4 18 35 44 38 26 28 30 32 43 44 51 54 61 65 66 67 60 74 76 103 118 107 107 114 125 134 147 135 135 136 126 122 122 116 111 116 122
48 33 32 26 40 40 42 48 41 27 23 25 26 32 21 20 14 17 24 27 30 25 24 27 29 34 38 40 43 54 55 64 81 86 97 93 83 82 94 108 119 119 109 104 117 124 128 127 132 139 145 153 144 137
31 24 31 35 39 32 29 41 49 54 42 23 20 21 23 25 14 10 29 49 39 34 34 33 30 30 33 43 65 78 84 91 100 100 110 108 102 86 77 78 75 99 104 110 106 111 131 138 143 148 158 151 142 131
36 27 44 35 43 47 59 58 55 46 27 25 25 27 30 24 23 22 14 44 31 22 13 18 24 29 31 46 59 79 103 98 105 116 137 149 141 136 130 127 135 149 149 131 134 133 130 140 149 150 147 158 159 151
20 33 30 45 64 50 43 48 50 35 37 26 28 26 21 16 26 17 9 7 13 27 25 18 29 36 54 63 62 50 62 64 78 90 94 106 105 113 127 143 162 170 176 190 188 167 167 165 163 167 168 166 163 154
31 23 23 36 44 44 48 62 70 66 53 54 67 51 35 24 26 33 39 37 21 9 12 19 24 21 28 41 54 55 42 41 41 55 77 83 91 135 143 154 165 167 169 189 215 231 228 216 205 182 167 147 136 132
45 53 21 10 27 50 66 61 50 46 57 60 61 64 72 63 50 58 61 67 67 71 57 44 39 40 42 44 49 60 48 46 62 87 105 135 154 177 183 184 180 175 167 162 159 159 161 151 139 142 140 144 137 125
64 53 57 46 42 68 70 60 60 54 48 57 59 64 54 54 47 48 84 76 82 74 68 71 53 49 60 81 92 103 98 120 112 115 130 144 169 193 212 205 188 172 174 173 163 149 132 136 126 128 134 136 131 125
56 59 59 50 56 50 57 68 74 83 94 104 95 107 110 110 91 120 103 108 103 101 96 106 131 133 121 125 134 158 160 183 191 172 164 174 199 219 217 202 185 184 189 174 153 133 130 134 131 132 135 130 120 106

GFSWCAN_con_3kmhel_108.txt.gz
Helicity
82 92 63 7 1 -7 -8 60 77 48 26 4 79 92 93 93 46 98 69 134 98 33 184 97 172 84 51 110 116 94 139 96 97 98 77 59 74 85 79 84 26 36 45 47 54 37 44 83 44 64 115 107 90 84
77 66 19 -4 -5 19 71 33 66 77 155 213 111 105 98 107 40 2 63 128 41 71 143 97 149 183 115 105 21 46 86 32 63 65 53 39 55 74 47 46 72 59 76 75 95 65 75 85 100 75 80 91 59 51
56 36 9 -6 54 78 128 29 22 46 49 48 54 88 92 24 28 13 59 153 63 25 134 121 104 116 78 105 112 47 74 64 62 89 92 63 58 31 44 53 68 50 30 47 29 61 56 53 67 50 58 41 27 17
38 31 -5 43 102 47 52 44 44 45 49 44 51 49 39 35 47 37 116 119 117 87 126 148 77 89 63 67 87 99 62 53 29 69 56 50 48 51 69 43 58 61 44 47 80 42 54 42 33 39 45 33 32 5
31 1 32 205 74 79 68 59 45 42 50 47 38 67 50 23 42 47 130 92 70 98 95 106 60 74 59 56 34 13 22 11 33 46 47 43 56 74 76 72 71 60 54 26 26 76 32 79 34 33 42 33 12 16
23 34 189 57 41 53 60 54 60 58 59 69 41 31 35 70 87 57 155 102 87 12 96 82 63 77 66 58 49 47 57 69 62 64 81 61 47 59 68 71 62 60 67 59 70 111 82 68 37 29 37 24 26 22
42 105 208 59 51 51 54 61 75 55 60 66 63 47 98 71 61 115 139 81 61 68 81 69 82 75 93 68 56 39 48 58 63 43 62 38 45 66 34 49 50 94 84 104 130 144 77 53 44 36 39 44 38 29
62 127 30 50 44 46 41 40 42 55 61 38 17 43 78 43 35 114 76 106 77 52 76 86 70 68 71 54 44 63 36 32 70 45 40 51 40 72 76 59 104 91 74 66 54 42 49 56 50 48 38 27 33 29
138 37 51 42 38 27 33 37 57 65 84 81 80 39 70 88 78 81 75 122 59 50 90 58 54 59 83 61 42 55 60 43 40 40 55 51 62 66 76 72 107 77 61 66 55 60 62 54 55 39 31 20 37 26
65 40 54 61 34 34 59 45 32 46 57 74 99 97 93 91 91 68 93 82 68 46 82 61 56 47 65 59 70 46 50 34 39 51 46 61 98 104 96 73 119 61 65 52 83 61 64 60 40 30 23 24 29 27
101 104 95 99 90 86 62 48 45 62 128 169 97 123 104 93 143 106 93 74 50 56 56 42 29 42 43 49 60 60 34 38 41 48 38 37 59 119 150 127 112 110 62 45 32 47 50 58 48 41 47 62 60 51
-6 21 32 68 78 73 67 51 68 141 84 65 66 109 141 124 110 93 91 74 85 56 46 26 22 56 67 66 46 39 33 22 32 36 52 46 121 161 142 148 123 110 97 71 60 52 61 62 74 98 105 114 148 128
48 52 72 82 62 64 92 77 73 59 56 116 172 144 110 90 124 108 74 84 60 51 64 95 89 54 53 59 45 33 33 23 25 34 30 65 118 135 153 155 118 110 122 87 80 103 127 135 129 133 170 126 105 94
47 20 55 76 68 77 62 71 119 153 204 127 149 130 149 108 93 104 102 108 62 40 82 122 109 78 54 54 28 28 13 4 -4 1 40 69 84 106 125 102 130 115 108 128 173 203 206 197 192 140 110 102 96 89
30 9 40 64 56 61 92 108 162 180 167 159 138 118 86 72 50 56 48 73 115 66 84 62 58 43 53 45 24 5 -1 -10 -10 0 23 71 105 111 137 133 166 151 134 135 130 144 147 137 125 108 93 82 94 85
25 4 75 74 64 68 119 170 142 133 147 130 100 58 44 28 33 54 87 128 102 48 34 62 56 49 46 21 -13 -18 -15 -8 9 20 36 88 107 114 118 97 87 111 102 103 108 117 115 102 85 91 106 97 86 81
12 91 64 60 57 110 171 150 164 169 125 96 85 112 106 120 102 107 80 71 59 41 65 51 60 55 18 -21 -16 -7 -4 28 18 31 40 56 82 91 96 76 64 94 98 83 89 84 86 104 118 94 101 81 70 72
54 47 89 110 142 128 157 128 113 120 128 118 98 94 115 95 81 86 101 131 75 59 66 57 52 35 -7 -19 -1 1 30 34 30 24 35 59 88 73 69 70 62 50 53 57 68 82 108 79 77 85 80 73 82 77
25 60 102 112 143 137 102 81 81 90 87 69 71 53 60 67 62 57 57 84 84 67 45 32 27 -6 3 12 1 31 14 9 23 35 50 45 37 47 58 56 61 66 62 63 63 66 64 62 73 77 76 71 75 68
53 105 133 109 125 140 93 73 74 73 67 57 67 78 78 65 42 49 50 53 43 44 42 40 30 16 11 32 56 35 16 49 36 32 28 29 40 56 55 56 62 75 75 79 85 92 100 94 87 81 71 51 66 75
30 102 144 107 67 76 78 80 71 85 73 74 75 86 79 60 66 63 49 36 35 48 43 31 20 24 36 60 49 30 22 7 2 12 25 24 28 48 52 63 88 63 88 101 100 102 112 110 101 97 103 124 136 165
51 88 71 64 73 58 60 90 74 88 91 76 79 87 69 57 47 41 34 35 31 23 34 54 41 32 32 45 43 36 30 44 44 71 84 86 55 76 72 98 61 66 77 93 88 110 109 115 133 120 138 161 160 144
67 59 66 63 51 57 75 110 85 106 83 74 74 70 60 52 51 25 39 32 35 38 43 39 50 75 67 56 56 48 32 21 41 67 73 54 69 75 82 82 54 78 86 83 97 103 138 162 138 161 163 147 170 152
40 52 61 55 52 40 66 73 74 73 75 76 62 56 54 42 29 27 29 31 39 23 31 44 36 44 52 54 45 52 50 73 101 60 80 119 100 88 87 71 68 76 83 101 123 141 178 168 174 164 133 139 121 106
69 53 42 41 36 37 51 58 83 71 76 74 71 59 46 26 26 26 20 27 32 36 32 32 42 54 71 89 124 88 79 58 44 50 79 92 97 99 98 88 88 87 99 136 146 171 174 162 164 131 111 112 122 136
56 41 44 34 40 50 44 47 48 63 74 76 66 60 41 31 31 28 27 32 30 24 28 27 40 45 60 81 63 48 55 76 76 65 62 94 97 100 98 104 96 101 108 132 162 161 153 152 136 145 127 157 169 181
40 37 21 22 41 46 61 64 58 52 53 48 45 54 43 47 35 38 26 30 30 31 29 45 64 61 62 79 96 104 98 106 107 108 120 125 108 90 98 99 88 118 133 140 154 157 148 133 167 165 218 196 178 171
36 14 22 25 32 46 56 42 34 47 55 39 24 40 44 48 54 39 32 31 34 33 30 30 40 51 65 80 88 83 79 95 151 144 152 157 158 160 144 116 121 138 123 127 141 146 143 165 192 208 182 176 182 165
34 40 38 38 44 45 48 39 39 49 79 52 49 41 43 52 47 32 17 16 22 44 47 31 38 46 58 52 34 23 20 30 40 43 48 67 84 102 121 151 184 168 173 192 195 190 193 199 209 227 247 222 200 174
55 46 42 43 48 48 49 53 53 60 65 65 66 60 53 51 48 37 28 25 21 24 32 38 41 23 26 25 23 15 6 3 5 8 25 49 70 105 132 176 197 219 244 286 333 351 364 345 324 270 230 198 167 148
65 51 48 39 36 43 62 60 49 48 49 59 67 64 64 56 29 37 49 57 48 50 52 53 50 38 42 38 34 28 26 37 53 54 100 159 150 141 150 161 174 208 237 247 256 254 246 226 208 184 156 156 155 138
41 38 40 38 34 51 50 47 51 52 41 39 33 39 45 39 28 31 57 76 78 76 67 70 72 71 71 81 79 83 57 77 80 108 113 129 149 164 182 191 201 191 179 179 184 174 170 178 163 168 184 152 140 149
50 54 67 61 40 34 47 53 36 42 45 54 62 84 80 85 77 78 68 102 131 166 183 143 160 158 152 144 141 137 120 123 125 131 149 180 202 215 218 200 182 178 186 182 168 171 171 179 175 161 158 163 148 141

GFSWCAN_con_3kmhel_111.txt.gz
Helicity
25 78 88 101 28 40 37 21 16 37 28 22 7 26 27 62 42 143 70 125 110 12 28 160 167 174 132 218 298 211 263 211 198 193 131 110 114 142 152 110 105 127 102 79 75 80 62 117 63 47 92 118 111 109
41 67 63 54 38 23 1 15 38 32 30 19 15 39 49 23 39 108 74 82 85 17 47 128 153 235 176 166 146 57 78 152 140 172 113 59 49 110 115 110 95 66 81 90 114 91 79 96 98 102 110 95 74 89
42 47 35 13 -3 -40 -36 -3 61 59 40 41 30 68 53 64 68 50 97 116 92 54 118 70 206 137 99 115 69 132 166 117 133 114 117 82 96 65 72 58 134 91 54 72 64 61 66 79 102 120 98 84 55 41
38 22 -3 -7 -24 81 143 115 90 113 113 125 128 92 91 79 -6 54 72 92 96 32 73 149 80 102 65 53 64 57 87 99 83 95 82 52 60 88 92 57 76 42 103 83 94 80 75 57 72 76 72 63 60 29
31 -7 -25 14 128 9 -10 36 73 75 93 82 82 80 59 15 18 24 71 120 81 70 94 154 136 138 62 37 58 71 62 71 84 101 76 61 64 78 96 90 123 69 59 46 33 100 46 81 68 51 51 42 33 23
17 13 -7 164 16 22 27 35 42 45 48 54 54 51 49 36 57 122 66 133 69 118 122 170 153 111 114 120 130 117 120 125 116 73 54 65 63 63 89 75 52 117 143 59 52 91 96 109 67 47 42 20 24 24
31 111 175 6 41 41 30 34 43 41 31 37 68 40 68 29 76 149 111 26 60 63 127 144 134 128 151 113 97 80 91 104 85 90 88 39 61 66 73 62 103 103 92 134 170 184 125 82 51 34 32 47 46 34
71 185 11 25 45 58 63 49 45 48 51 32 56 98 85 50 115 233 116 54 23 66 93 103 102 96 96 105 84 81 64 70 71 39 62 57 72 75 62 95 133 107 91 71 47 68 108 81 75 57 71 63 44 34
103 88 35 41 49 42 38 24 34 57 58 70 92 71 114 156 209 151 70 76 31 64 95 70 74 81 74 88 59 72 53 52 47 57 53 47 51 57 42 114 120 93 93 56 80 79 110 80 81 65 52 53 68 73
133 37 35 40 50 33 19 39 69 100 87 78 147 207 223 140 110 113 103 86 82 87 76 88 87 71 60 74 62 49 53 32 40 36 41 64 66 44 92 119 75 98 83 84 102 85 82 95 69 51 44 65 64 89
34 44 34 35 33 33 50 96 101 109 107 103 148 204 120 54 169 156 119 82 81 90 73 81 66 73 76 58 62 48 34 42 50 33 56 49 62 101 177 126 72 90 92 91 93 99 111 83 68 60 88 97 92 106
59 52 55 45 40 35 44 57 83 136 129 105 86 139 110 142 151 102 101 88 79 71 73 44 33 74 115 82 60 67 42 48 55 33 51 52 83 166 185 163 142 113 100 112 97 107 111 104 114 166 186 185 161 145
107 78 115 118 62 46 72 81 115 133 86 151 195 176 173 141 118 106 88 88 82 74 90 82 81 67 84 63 54 48 49 45 27 32 19 43 118 140 184 205 187 137 118 115 132 144 170 185 198 172 174 158 156 146
59 64 67 91 88 74 79 55 83 123 159 158 150 182 145 146 105 110 87 82 65 62 136 120 97 49 54 59 43 37 27 21 12 3 19 60 99 123 146 151 159 117 147 172 190 214 222 213 185 149 134 121 133 121
79 72 79 83 102 97 106 140 167 150 162 158 153 146 120 83 72 71 98 97 139 78 94 98 66 48 55 43 38 36 19 -5 4 10 21 66 116 140 145 133 111 102 122 174 170 192 185 178 168 139 113 121 132 127
53 119 121 57 82 90 121 147 136 116 119 118 97 88 77 75 63 77 102 168 136 76 89 69 47 50 33 31 43 11 -0 -1 9 21 51 94 132 151 151 152 139 107 116 165 153 160 158 150 131 124 129 130 126 117
93 123 62 41 99 149 147 104 121 106 94 109 96 77 76 73 54 101 138 155 133 64 61 57 52 33 25 38 10 6 4 8 25 37 51 64 106 126 136 137 117 120 142 146 137 138 137 145 149 132 131 116 110 89
143 95 65 93 133 194 161 155 134 86 81 121 82 81 89 83 83 117 134 164 127 83 61 40 36 50 42 15 -0 2 10 39 43 30 45 71 91 84 74 87 85 94 98 109 108 124 133 108 92 94 112 110 110 84
77 77 90 116 127 141 118 125 105 77 84 88 71 75 73 74 72 88 131 172 93 63 43 45 48 53 16 9 3 9 28 17 28 32 43 47 54 67 76 83 91 84 80 76 79 78 74 69 90 108 110 99 87 56
63 98 134 137 119 105 99 102 78 100 78 61 73 81 68 64 72 71 84 71 53 59 54 42 37 25 11 27 7 11 22 62 51 39 40 40 48 69 70 89 86 76 66 62 69 77 65 96 110 100 85 73 67 39
73 116 120 109 99 62 57 64 59 61 67 62 75 73 73 78 78 68 53 67 54 55 43 26 23 20 19 38 23 28 25 23 -10 11 40 51 48 57 57 59 83 72 62 65 73 59 86 108 91 84 58 109 134 141
85 87 51 58 46 57 58 76 56 61 71 73 80 71 67 64 56 49 28 40 43 37 30 32 31 14 7 21 9 21 26 31 41 91 75 87 74 64 60 98 85 69 73 81 73 78 127 126 133 178 215 217 211 193
74 51 54 53 45 52 69 80 74 86 67 64 79 62 63 57 50 34 42 35 36 30 26 33 43 57 52 43 60 68 45 50 80 77 67 56 73 78 101 81 73 77 78 76 78 126 168 164 201 203 208 196 183 189
49 39 46 37 37 37 74 71 61 63 64 65 61 59 59 50 40 39 34 31 27 30 46 57 47 38 54 57 55 58 90 90 79 60 58 90 92 97 100 78 79 82 93 105 121 163 195 210 208 215 200 181 170 186
31 50 32 40 34 40 50 58 79 60 56 63 62 50 44 34 34 26 22 23 30 34 38 33 39 64 53 79 109 76 90 66 66 69 70 97 116 123 111 110 110 106 140 166 167 188 218 216 198 201 171 150 133 176
46 42 34 29 38 40 30 39 43 49 66 73 63 60 46 38 37 31 29 32 37 30 27 24 36 61 72 68 73 76 87 83 91 87 68 85 91 109 121 125 131 124 141 161 204 215 221 200 176 167 145 135 171 216
44 40 19 11 34 38 50 56 62 54 59 53 58 48 43 52 36 36 24 25 22 25 29 33 39 45 71 102 135 144 133 113 98 118 130 121 104 84 102 111 105 95 132 181 199 211 213 189 167 180 192 216 212 216
33 23 15 20 39 50 55 47 43 40 52 44 57 61 59 68 59 40 26 19 25 23 29 28 35 51 72 72 78 102 120 147 178 176 167 157 145 127 106 118 130 156 167 178 191 184 182 196 224 233 246 258 239 230
36 32 33 25 42 44 51 47 45 59 74 65 45 53 53 50 46 31 12 9 6 13 17 20 24 36 63 72 64 56 70 75 90 79 77 77 89 101 114 142 149 141 151 154 167 182 216 242 242 267 299 312 299 289
54 59 50 47 51 57 57 56 51 53 57 56 53 54 62 53 51 46 36 26 20 12 13 29 30 26 29 36 47 45 19 7 2 10 29 40 46 82 152 194 202 208 226 260 280 302 341 344 347 320 298 282 268 256
72 51 65 50 42 61 51 45 48 51 49 50 57 66 71 65 44 49 60 59 38 39 45 53 49 37 52 51 57 51 42 35 38 31 42 115 125 158 183 202 212 242 272 295 298 298 303 287 271 266 249 240 219 211
49 38 42 49 39 47 43 39 53 50 35 39 36 44 47 40 32 39 59 81 80 79 75 75 63 50 73 82 88 84 68 99 97 100 131 147 157 172 198 204 212 224 246 259 260 254 251 247 222 210 206 191 175 166
34 39 57 55 37 37 61 56 39 35 36 41 50 74 74 75 65 55 50 95 108 121 147 132 112 119 136 138 148 145 142 135 140 127 131 149 178 208 209 193 190 200 219 216 210 207 204 219 217 198 189 188 175 159

GFSWCAN_con_3kmhel_114.txt.gz
Helicity
-5 11 18 41 93 24 36 13 7 15 7 19 43 35 34 32 28 64 163 143 89 112 89 47 41 57 103 144 146 90 277 252 277 221 164 150 163 164 141 119 124 176 179 138 119 113 62 125 109 67 63 113 131 134
24 26 65 63 64 58 47 4 18 12 18 10 28 13 4 12 41 41 141 114 88 68 45 13 120 210 130 147 199 149 154 136 67 149 149 178 124 155 125 128 145 125 121 152 134 90 79 139 99 84 85 108 93 96
34 30 48 38 27 39 38 29 26 20 15 7 17 -6 -34 24 48 128 118 118 79 71 46 28 129 241 145 232 285 230 190 125 94 113 138 152 117 100 112 84 138 101 117 94 99 97 112 105 127 120 110 96 75 87
33 28 21 -1 4 6 30 1 21 17 6 27 3 -17 -4 86 115 122 104 80 85 81 56 63 264 255 239 199 7 54 64 101 110 150 163 121 107 83 87 65 94 80 108 102 95 66 80 72 102 117 114 106 84 54
24 17 -14 -15 -5 37 87 48 49 35 40 19 9 64 55 45 82 116 124 73 124 49 57 70 75 119 20 93 34 56 83 103 103 135 110 87 80 81 126 120 108 92 66 87 28 68 64 95 102 94 85 56 53 57
-9 2 -9 115 201 74 89 83 78 63 52 41 62 68 70 52 90 123 111 67 49 68 100 105 140 134 117 69 51 60 69 96 109 89 63 68 62 57 91 76 63 69 70 53 39 111 76 126 119 72 63 59 46 34
3 59 259 38 22 52 71 89 105 109 92 95 90 87 73 58 104 95 86 69 68 88 89 102 107 119 129 131 140 143 151 143 136 125 92 80 84 87 64 48 56 76 82 123 166 210 147 109 68 63 68 62 55 59
113 121 29 4 13 27 34 58 88 89 79 85 100 70 41 59 130 137 118 92 71 142 107 75 118 111 108 125 112 129 117 117 120 86 85 78 100 74 43 55 84 88 105 104 79 58 118 127 91 66 71 80 74 61
205 5 1 -2 16 24 29 44 38 61 68 64 50 77 162 204 165 125 70 73 85 89 69 81 86 110 109 130 117 105 65 70 73 70 69 61 67 41 18 57 75 75 67 81 96 124 151 128 106 106 96 78 67 47
44 13 6 18 30 47 69 59 33 16 34 81 150 189 174 250 164 128 136 126 108 89 70 80 97 79 83 108 93 65 65 48 54 62 54 49 41 53 49 58 68 40 104 141 140 100 110 132 116 101 76 73 81 86
9 15 14 24 38 29 52 61 54 49 115 208 291 264 253 237 213 170 149 107 94 81 74 85 78 84 87 59 68 55 42 44 45 44 39 44 43 52 57 91 61 66 92 78 104 94 121 117 87 102 111 116 130 119
-2 17 30 31 51 58 79 100 88 94 180 250 223 229 223 193 187 89 106 90 85 75 101 75 83 96 121 82 51 61 39 46 34 49 54 50 36 57 88 70 52 79 120 112 104 96 110 106 102 110 121 141 169 160
15 9 17 52 65 77 112 110 105 93 146 200 301 248 166 136 96 59 68 77 83 93 83 93 129 119 104 86 55 47 46 33 36 52 41 26 53 78 94 100 113 103 123 135 146 156 179 177 170 199 179 169 194 161
56 47 33 52 67 79 140 126 108 146 175 230 246 234 143 112 69 65 70 77 79 83 123 104 118 66 70 59 44 48 41 50 53 34 6 27 66 118 119 113 142 127 123 137 158 168 168 174 167 161 159 144 154 140
80 76 85 84 79 102 118 102 126 111 141 159 162 125 87 82 92 119 108 102 120 104 95 94 76 51 71 48 52 41 45 46 17 -6 15 29 85 120 131 150 113 107 120 140 157 188 183 166 158 149 132 138 144 139
93 122 160 109 115 121 122 140 107 43 81 81 65 76 79 83 134 143 155 179 147 100 88 61 46 56 51 33 42 41 58 11 2 9 24 68 80 93 102 98 79 81 101 126 142 157 164 141 131 134 133 119 116 115
84 112 125 102 111 123 126 107 89 85 86 91 115 114 96 92 124 140 169 185 147 82 69 59 55 33 32 44 51 33 7 -0 9 28 48 48 86 106 108 105 91 105 105 112 162 158 167 156 157 149 130 103 111 105
85 95 120 132 130 116 84 95 87 106 124 132 88 95 90 91 113 152 182 202 120 78 53 45 35 45 29 33 17 -4 1 9 22 32 27 37 60 85 91 107 88 86 99 126 149 159 152 131 118 112 119 118 134 123
62 72 102 123 107 109 96 98 67 55 96 99 80 59 79 95 96 120 185 165 79 60 55 52 37 28 18 7 -1 -5 5 -1 13 18 20 22 40 66 74 78 81 80 88 100 112 110 94 87 101 122 130 118 120 109
80 110 102 70 83 98 81 89 68 58 59 60 69 71 66 94 112 114 123 106 63 53 45 29 20 24 16 12 -3 1 5 21 35 33 21 17 22 45 53 77 80 89 85 84 85 100 107 99 101 117 113 105 119 86
53 99 95 64 64 47 65 77 68 61 58 55 77 60 75 98 79 57 69 81 45 46 41 31 27 20 28 26 17 16 13 16 1 8 28 26 26 47 63 70 83 81 84 74 80 83 99 95 98 100 103 93 105 105
59 72 57 58 39 41 41 65 43 58 70 72 74 62 59 53 55 48 56 62 53 44 30 22 14 17 23 24 8 3 4 10 19 31 63 88 66 64 71 76 88 78 74 69 73 89 65 71 86 93 91 96 111 119
45 41 44 38 41 53 61 74 73 75 74 72 78 66 65 55 48 41 43 36 26 29 16 27 46 44 37 17 21 24 28 46 50 58 52 53 63 76 85 83 81 87 72 56 85 88 99 121 140 142 132 162 169 182
38 28 30 26 29 38 66 71 72 68 72 71 62 63 58 54 48 45 37 34 31 34 54 54 39 44 59 56 40 47 43 44 53 49 39 50 51 49 70 74 73 75 77 79 114 123 150 165 174 172 185 205 190 194
14 38 30 45 46 52 68 75 80 73 66 69 68 61 52 39 41 35 36 22 22 31 28 31 39 54 40 44 60 58 53 51 47 43 44 50 63 77 67 67 75 87 112 137 142 181 179 192 184 183 175 182 191 197
23 32 28 25 45 41 39 53 47 44 65 66 55 53 43 41 45 40 36 32 35 35 31 24 27 54 59 55 85 80 59 55 72 74 62 76 76 78 92 103 89 80 108 153 178 182 181 195 188 176 160 162 188 227
49 42 37 17 26 37 51 55 55 57 55 44 47 50 65 61 42 29 27 33 20 22 27 21 20 27 44 65 80 76 63 60 64 72 82 90 76 83 115 107 98 84 139 157 168 178 184 183 170 157 148 142 155 184
35 33 24 22 37 36 40 49 49 49 51 55 76 68 57 49 44 42 30 27 33 41 30 18 5 19 48 57 62 75 87 104 132 132 131 131 113 67 62 75 90 123 124 133 153 171 171 175 174 181 177 178 184 180
49 38 35 30 37 39 46 47 45 53 59 63 70 69 59 56 41 28 20 19 16 16 21 15 23 28 38 43 43 45 68 83 100 82 75 61 69 61 60 95 117 123 126 140 158 174 185 194 204 207 208 225 228 224
45 47 51 43 43 40 44 61 66 51 49 57 61 61 66 61 61 53 48 37 17 8 5 11 17 21 28 40 35 29 38 35 33 46 58 40 26 46 86 95 98 112 142 179 210 249 293 295 302 275 274 254 240 241
60 67 67 64 51 65 74 58 55 47 55 52 62 68 65 49 47 54 56 51 40 29 41 43 38 34 39 39 43 35 15 2 11 9 26 50 87 109 137 140 145 167 197 219 222 223 236 235 237 251 236 229 218 221
39 35 47 60 50 60 54 51 54 55 45 55 47 53 63 52 38 28 54 62 60 77 70 53 56 44 43 51 61 76 62 74 75 68 91 121 143 149 159 170 182 202 224 233 222 221 224 236 212 200 198 203 195 190
41 43 43 52 45 36 50 48 44 41 42 38 39 50 56 56 44 36 49 92 96 97 94 92 74 56 78 77 84 105 111 103 108 113 127 153 175 179 180 178 183 200 222 218 207 202 201 203 195 192 192 192 181 170

GFSWCAN_con_3kmhel_117.txt.gz
Helicity
21 12 3 -17 -34 -32 10 69 24 -5 -8 5 14 17 35 41 47 98 95 84 82 18 115 63 54 51 52 77 83 72 113 66 94 62 241 165 155 149 155 133 183 227 219 193 154 153 82 126 141 112 74 125 145 172
6 5 6 10 2 41 64 36 14 55 31 17 11 11 15 32 49 85 63 80 83 79 71 78 70 52 32 59 120 97 51 54 104 168 186 174 103 157 152 136 208 178 188 202 173 118 136 106 110 100 87 92 101 141
6 36 36 38 39 44 30 29 5 25 13 14 14 3 3 26 32 73 80 149 125 21 6 3 -14 -14 95 75 108 135 103 143 149 104 187 213 163 147 143 153 198 179 174 137 138 106 129 145 155 105 82 100 108 130
36 37 26 29 27 30 36 33 35 52 20 1 3 -5 -9 -6 -16 8 105 84 155 66 25 20 72 108 123 139 127 82 56 190 130 88 95 95 91 99 100 84 104 103 118 124 124 71 87 101 117 134 143 141 128 108
45 21 3 0 7 28 57 43 23 18 19 0 -8 -32 -30 27 34 14 128 82 73 56 22 12 85 161 225 108 141 201 149 105 95 106 110 103 107 96 124 110 98 107 94 118 55 52 70 66 113 129 137 123 92 98
-5 -10 -3 -1 55 29 29 -24 32 24 9 6 -10 -14 -11 51 246 235 93 52 29 42 59 56 58 146 179 92 174 103 98 91 85 79 83 100 85 76 79 74 87 99 73 57 30 78 99 87 127 113 132 101 78 78
3 55 210 163 0 37 19 12 3 -2 13 3 -14 8 41 72 127 117 81 76 19 73 61 70 78 126 157 115 99 85 88 88 79 88 89 61 71 53 58 44 51 98 95 120 152 193 131 123 101 130 130 108 103 105
172 123 -4 98 86 66 52 29 8 7 -4 7 21 81 103 110 100 125 104 85 85 66 53 41 64 91 100 105 103 94 92 108 131 80 86 69 83 60 46 37 71 83 91 87 95 68 87 136 149 142 133 137 123 89
85 33 35 72 98 87 97 130 131 129 112 109 86 93 127 113 99 176 156 92 97 65 45 41 58 56 95 107 110 111 91 85 78 69 71 85 88 57 36 44 51 46 52 71 100 60 115 153 145 138 124 110 100 83
34 34 39 43 45 84 93 82 107 133 145 151 162 177 133 124 141 66 181 159 109 71 62 40 87 88 98 102 91 75 73 59 52 58 63 56 52 67 52 34 31 31 74 126 153 114 125 137 126 114 95 82 85 96
29 40 43 43 39 41 58 79 123 118 165 263 174 128 137 169 234 198 135 78 66 40 39 62 68 89 107 67 92 73 48 55 43 46 41 44 41 57 50 52 53 53 64 48 99 96 123 146 138 117 108 99 110 114
18 45 40 51 31 18 18 44 94 198 266 208 207 276 309 221 165 69 86 68 39 17 75 80 90 102 111 84 54 63 41 45 35 56 52 46 44 47 57 56 32 33 58 74 105 130 140 160 157 134 126 136 143 155
22 39 50 60 76 82 85 86 89 254 283 297 276 190 144 105 69 28 45 55 34 63 94 113 119 108 99 85 51 40 40 28 28 48 27 33 35 49 61 54 61 65 84 106 124 131 148 148 156 164 173 173 187 194
55 67 53 69 87 106 84 106 122 281 268 222 188 132 96 84 46 35 41 42 68 72 132 141 135 81 94 68 39 30 36 39 53 43 31 16 19 56 68 65 90 81 96 123 132 141 144 156 157 166 160 138 177 193
65 65 54 63 147 174 93 47 300 304 211 161 125 89 70 55 58 61 72 73 130 112 99 110 99 59 83 44 49 37 45 32 28 24 2 24 55 82 95 88 100 109 113 140 125 141 147 170 157 148 144 156 166 174
79 113 127 109 114 138 91 108 140 152 139 127 83 77 86 79 94 104 110 126 149 141 95 74 55 55 54 31 40 27 41 27 11 -1 10 36 60 75 94 86 86 90 104 121 118 121 127 132 138 146 150 149 141 139
69 113 158 131 108 118 118 104 135 122 88 92 99 96 92 116 127 125 151 153 129 87 84 62 55 41 37 40 36 35 32 9 3 9 19 34 65 84 88 76 50 68 93 110 103 96 127 136 156 151 144 128 130 122
88 119 132 118 83 141 119 60 49 56 116 125 89 101 112 133 125 142 179 142 75 54 60 48 35 46 28 24 25 17 7 12 17 21 22 31 48 68 72 87 66 62 72 81 73 117 129 131 124 114 127 133 151 135
117 112 105 101 62 79 116 102 67 80 102 109 78 85 96 107 117 147 144 123 71 55 40 43 35 30 26 20 -3 4 4 5 2 2 27 32 30 41 47 62 77 74 74 87 101 99 101 111 125 142 154 163 172 133
77 109 96 68 82 59 49 61 59 64 71 68 53 79 78 77 106 152 147 114 73 55 47 30 27 39 24 21 9 7 20 13 15 17 25 23 19 36 38 51 57 71 83 93 100 117 131 123 107 127 145 153 144 107
69 96 97 93 77 46 27 42 38 40 52 53 71 58 79 100 96 108 110 100 48 46 30 28 27 23 19 22 19 17 12 7 -2 11 16 18 10 18 26 40 68 76 95 104 103 100 111 102 107 124 140 124 125 154
42 43 36 47 39 41 36 60 37 45 50 58 64 56 61 63 61 60 64 45 38 42 31 25 12 20 28 30 27 21 8 17 30 40 51 60 51 40 38 54 77 77 79 76 83 97 112 104 117 128 134 149 149 155
36 35 30 31 38 47 53 66 64 72 62 61 67 64 58 50 45 67 48 39 33 40 24 24 35 34 36 27 34 42 26 22 24 30 32 42 49 58 72 67 72 80 71 60 82 99 116 118 121 138 144 141 160 166
33 27 23 22 29 29 60 59 54 61 72 70 64 61 61 58 57 53 42 40 34 36 42 41 30 39 47 43 40 41 31 31 41 45 41 46 41 28 52 58 62 66 82 89 94 123 129 126 134 143 139 145 149 154
7 28 23 37 39 49 59 65 67 64 61 62 66 60 52 45 45 46 37 32 28 26 33 35 33 35 32 40 55 56 43 43 42 32 18 46 54 57 53 60 65 73 103 128 126 139 133 141 132 144 129 139 154 156
3 13 20 16 34 41 41 59 51 47 66 73 65 55 44 48 54 40 40 30 31 27 27 21 23 43 45 45 54 58 50 39 52 66 57 70 73 73 68 80 83 60 84 127 149 135 132 136 145 151 148 161 186 204
30 20 28 18 29 38 58 68 68 75 67 50 47 51 65 49 32 37 29 41 26 20 30 28 22 25 26 40 62 75 73 64 49 54 55 72 68 78 92 84 75 61 114 126 135 146 148 143 146 144 153 149 155 164
26 35 29 28 42 42 39 55 56 54 55 58 78 69 48 37 39 48 49 47 48 44 42 39 29 18 24 30 33 46 55 53 60 70 85 100 87 56 52 65 65 86 109 113 127 137 143 157 167 168 174 176 163 142
51 46 42 50 46 45 43 49 45 49 58 63 63 68 59 63 56 41 37 45 40 41 37 34 41 34 41 37 31 17 12 43 59 53 48 42 49 40 46 62 60 78 95 100 102 133 155 153 160 168 180 187 184 192
46 46 45 38 36 35 32 51 51 41 46 58 66 69 66 64 57 47 37 36 28 20 19 24 29 29 26 25 16 10 11 19 16 22 34 37 23 21 49 59 75 84 103 141 167 195 249 253 269 242 231 208 204 214
63 72 57 47 32 50 63 63 61 54 55 64 64 69 67 63 68 65 58 51 43 32 33 36 34 31 33 25 24 20 11 18 26 18 25 36 51 64 85 103 105 118 140 161 168 174 186 183 186 206 200 200 195 207
56 62 62 64 60 57 59 62 67 69 65 70 62 71 72 68 52 40 56 59 51 57 64 49 46 34 38 42 47 50 53 57 65 57 70 83 104 110 122 124 131 140 151 155 156 164 171 189 185 190 195 191 185 187
44 51 50 54 66 41 46 63 71 60 73 65 55 56 53 38 45 32 40 80 85 86 83 76 66 56 41 41 51 60 68 74 81 93 103 122 138 139 138 139 147 160 174 176 176 179 184 194 197 194 189 182 175 178